QPF
0.00 0.01 0.00 0.01 0.01 0.01 0.01 0.02 0.02 0.01 0.01 0.01 0.01 0.01 0.02 0.03 0.05 0.05 0.04 0.06 0.07 0.08 0.07 0.06 0.06 0.06 0.07 0.08 0.09 0.11 0.12 0.12 0.11 0.10 0.07 0.05 0.05 0.04
0.00 0.00 0.00 0.00 0.00 0.00 0.01 0.01 0.01 0.02 0.01 0.01 0.01 0.02 0.02 0.02 0.03 0.03 0.04 0.05 0.07 0.07 0.08 0.07 0.06 0.06 0.06 0.06 0.05 0.06 0.07 0.08 0.09 0.09 0.08 0.07 0.06 0.06
0.00 0.00 0.00 0.00 0.01 0.01 0.01 0.02 0.02 0.02 0.01 0.01 0.01 0.01 0.01 0.01 0.01 0.02 0.03 0.04 0.04 0.06 0.08 0.07 0.07 0.07 0.07 0.06 0.06 0.05 0.04 0.04 0.06 0.07 0.06 0.06 0.05 0.04
0.00 0.01 0.01 0.01 0.01 0.01 0.01 0.01 0.02 0.02 0.02 0.01 0.01 0.01 0.01 0.01 0.01 0.01 0.02 0.03 0.03 0.05 0.07 0.09 0.09 0.09 0.08 0.07 0.07 0.06 0.05 0.04 0.04 0.04 0.05 0.06 0.06 0.05
0.00 0.00 0.01 0.02 0.02 0.02 0.01 0.01 0.01 0.02 0.02 0.01 0.01 0.01 0.01 0.01 0.01 0.01 0.01 0.01 0.01 0.03 0.04 0.06 0.08 0.08 0.08 0.09 0.08 0.07 0.05 0.05 0.05 0.04 0.03 0.04 0.05 0.05
0.00 0.01 0.01 0.02 0.02 0.02 0.02 0.01 0.01 0.01 0.01 0.01 0.01 0.01 0.02 0.01 0.01 0.01 0.01 0.01 0.01 0.02 0.03 0.04 0.06 0.08 0.09 0.09 0.10 0.09 0.08 0.07 0.06 0.05 0.04 0.04 0.04 0.03
0.02 0.01 0.02 0.02 0.03 0.03 0.03 0.02 0.01 0.01 0.01 0.02 0.02 0.01 0.01 0.01 0.01 0.01 0.01 0.01 0.01 0.03 0.04 0.04 0.05 0.06 0.07 0.08 0.08 0.08 0.08 0.08 0.08 0.07 0.05 0.04 0.04 0.04
0.01 0.01 0.02 0.02 0.04 0.04 0.04 0.03 0.02 0.01 0.01 0.01 0.01 0.01 0.01 0.01 0.02 0.02 0.02 0.01 0.01 0.02 0.03 0.03 0.05 0.06 0.05 0.05 0.06 0.08 0.09 0.09 0.09 0.08 0.08 0.07 0.06 0.05
0.00 0.01 0.01 0.01 0.02 0.01 0.02 0.02 0.02 0.02 0.01 0.01 0.01 0.01 0.01 0.01 0.01 0.02 0.02 0.02 0.01 0.02 0.04 0.03 0.04 0.04 0.05 0.06 0.08 0.09 0.10 0.11 0.12 0.13 0.12 0.10 0.08 0.08
0.00 0.00 0.01 0.02 0.01 0.01 0.01 0.01 0.01 0.02 0.03 0.02 0.02 0.01 0.01 0.01 0.01 0.01 0.02 0.02 0.02 0.02 0.03 0.03 0.02 0.02 0.03 0.05 0.07 0.08 0.09 0.10 0.12 0.15 0.18 0.18 0.17 0.16
0.00 0.00 0.00 0.01 0.01 0.01 0.01 0.01 0.01 0.01 0.02 0.03 0.02 0.02 0.01 0.01 0.02 0.03 0.02 0.02 0.02 0.01 0.02 0.03 0.03 0.04 0.04 0.04 0.05 0.07 0.09 0.10 0.11 0.13 0.16 0.20 0.22 0.25
0.00 0.00 0.00 0.00 0.01 0.00 0.00 0.00 0.01 0.01 0.01 0.02 0.02 0.02 0.02 0.02 0.02 0.02 0.03 0.03 0.02 0.02 0.02 0.02 0.03 0.04 0.05 0.04 0.04 0.06 0.08 0.12 0.15 0.17 0.19 0.21 0.26 0.29
0.00 0.00 0.00 0.00 0.00 0.00 0.00 0.00 0.01 0.01 0.01 0.01 0.01 0.02 0.03 0.03 0.03 0.03 0.03 0.04 0.04 0.03 0.03 0.03 0.03 0.04 0.05 0.04 0.04 0.06 0.07 0.09 0.13 0.18 0.23 0.25 0.29 0.31
0.00 0.00 0.00 0.00 0.00 0.00 0.00 0.00 0.01 0.01 0.01 0.01 0.01 0.01 0.01 0.02 0.02 0.02 0.04 0.04 0.04 0.03 0.03 0.04 0.04 0.04 0.04 0.05 0.05 0.06 0.09 0.11 0.13 0.14 0.18 0.26 0.33 0.37
0.00 0.00 0.00 0.00 0.00 0.00 0.00 0.00 0.01 0.01 0.01 0.01 0.01 0.01 0.01 0.02 0.02 0.02 0.03 0.04 0.05 0.04 0.03 0.03 0.03 0.04 0.05 0.05 0.05 0.06 0.08 0.11 0.14 0.17 0.19 0.22 0.27 0.33
0.00 0.00 0.00 0.00 0.00 0.00 0.00 0.00 0.01 0.03 0.03 0.01 0.01 0.01 0.02 0.02 0.03 0.02 0.02 0.03 0.05 0.06 0.06 0.05 0.04 0.04 0.04 0.04 0.04 0.05 0.06 0.08 0.11 0.14 0.18 0.21 0.23 0.27
0.00 0.00 0.00 0.00 0.00 0.00 0.00 0.00 0.00 0.03 0.02 0.01 0.01 0.01 0.01 0.02 0.02 0.02 0.02 0.03 0.04 0.04 0.04 0.05 0.04 0.04 0.05 0.05 0.05 0.04 0.04 0.05 0.07 0.10 0.16 0.19 0.20 0.22
0.00 0.00 0.00 0.00 0.00 0.00 0.00 0.00 0.00 0.00 0.01 0.00 0.00 0.00 0.01 0.01 0.01 0.01 0.01 0.02 0.03 0.03 0.03 0.04 0.04 0.05 0.05 0.05 0.05 0.05 0.05 0.05 0.06 0.09 0.13 0.17 0.19 0.21
0.00 0.00 0.00 0.00 0.00 0.00 0.00 0.00 0.00 0.00 0.00 0.00 0.00 0.00 0.00 0.00 0.01 0.01 0.01 0.01 0.02 0.02 0.02 0.03 0.04 0.05 0.06 0.06 0.04 0.04 0.05 0.06 0.07 0.09 0.11 0.13 0.14 0.16
0.00 0.00 0.00 0.00 0.00 0.00 0.00 0.00 0.00 0.00 0.00 0.00 0.00 0.00 0.00 0.00 0.01 0.01 0.01 0.01 0.01 0.01 0.02 0.03 0.03 0.04 0.06 0.06 0.06 0.04 0.04 0.05 0.06 0.08 0.11 0.15 0.18 0.23
0.00 0.00 0.00 0.00 0.00 0.00 0.00 0.00 0.00 0.00 0.00 0.00 0.00 0.00 0.00 0.01 0.01 0.01 0.01 0.02 0.02 0.02 0.03 0.03 0.03 0.05 0.06 0.08 0.08 0.06 0.06 0.07 0.08 0.10 0.12 0.16 0.20 0.22
0.00 0.01 0.01 0.00 0.00 0.00 0.00 0.00 0.00 0.00 0.00 0.00 0.00 0.00 0.00 0.00 0.01 0.01 0.01 0.03 0.03 0.03 0.03 0.03 0.04 0.05 0.06 0.07 0.07 0.07 0.08 0.09 0.11 0.14 0.16 0.18 0.18 0.16
0.00 0.00 0.01 0.00 0.00 0.00 0.00 0.00 0.00 0.00 0.00 0.00 0.00 0.00 0.00 0.00 0.00 0.01 0.01 0.03 0.04 0.04 0.03 0.03 0.04 0.05 0.06 0.07 0.08 0.08 0.08 0.10 0.12 0.14 0.15 0.16 0.16 0.16
MSLP
1014.20 1014.22 1014.22 1014.17 1014.04 1013.83 1013.52 1013.14 1012.71 1012.28 1011.86 1011.49 1011.19 1010.96 1010.80 1010.69 1010.62 1010.59 1010.60 1010.65 1010.75 1010.92 1011.15 1011.45 1011.80 1012.18 1012.57 1012.95 1013.32 1013.67 1014.01 1014.34 1014.69 1015.07 1015.47 1015.90 1016.34 1016.78
1014.09 1014.06 1014.01 1013.91 1013.74 1013.50 1013.19 1012.83 1012.45 1012.07 1011.72 1011.41 1011.16 1010.95 1010.77 1010.63 1010.51 1010.41 1010.34 1010.32 1010.36 1010.47 1010.66 1010.92 1011.24 1011.59 1011.96 1012.34 1012.69 1013.04 1013.37 1013.71 1014.08 1014.47 1014.89 1015.35 1015.82 1016.29
1013.89 1013.82 1013.72 1013.58 1013.38 1013.12 1012.83 1012.52 1012.20 1011.90 1011.64 1011.41 1011.22 1011.04 1010.88 1010.71 1010.54 1010.38 1010.24 1010.14 1010.10 1010.14 1010.27 1010.48 1010.75 1011.07 1011.41 1011.75 1012.08 1012.41 1012.74 1013.07 1013.44 1013.84 1014.28 1014.76 1015.25 1015.74
1013.65 1013.55 1013.41 1013.23 1013.01 1012.76 1012.49 1012.24 1012.00 1011.79 1011.61 1011.47 1011.33 1011.20 1011.04 1010.86 1010.65 1010.43 1010.22 1010.04 1009.93 1009.90 1009.96 1010.10 1010.32 1010.59 1010.89 1011.19 1011.50 1011.80 1012.11 1012.44 1012.80 1013.21 1013.66 1014.15 1014.66 1015.18
1013.41 1013.28 1013.11 1012.90 1012.68 1012.44 1012.21 1012.00 1011.83 1011.69 1011.59 1011.51 1011.42 1011.31 1011.16 1010.96 1010.72 1010.44 1010.17 1009.94 1009.76 1009.67 1009.66 1009.75 1009.92 1010.13 1010.39 1010.65 1010.92 1011.20 1011.49 1011.81 1012.17 1012.59 1013.04 1013.54 1014.07 1014.59
1013.18 1013.03 1012.84 1012.62 1012.39 1012.16 1011.96 1011.78 1011.65 1011.56 1011.50 1011.45 1011.38 1011.27 1011.11 1010.89 1010.61 1010.31 1010.00 1009.72 1009.50 1009.36 1009.31 1009.36 1009.47 1009.65 1009.86 1010.09 1010.33 1010.59 1010.87 1011.18 1011.54 1011.96 1012.42 1012.93 1013.46 1014.00
1012.95 1012.79 1012.60 1012.38 1012.15 1011.92 1011.72 1011.55 1011.42 1011.33 1011.27 1011.20 1011.12 1010.99 1010.80 1010.56 1010.26 1009.93 1009.60 1009.30 1009.07 1008.91 1008.84 1008.86 1008.95 1009.10 1009.28 1009.48 1009.70 1009.95 1010.22 1010.53 1010.89 1011.31 1011.78 1012.30 1012.84 1013.39
1012.70 1012.55 1012.36 1012.15 1011.92 1011.68 1011.46 1011.27 1011.11 1010.98 1010.86 1010.75 1010.61 1010.43 1010.21 1009.93 1009.62 1009.29 1008.97 1008.68 1008.46 1008.31 1008.25 1008.26 1008.34 1008.47 1008.64 1008.82 1009.03 1009.26 1009.53 1009.84 1010.21 1010.63 1011.11 1011.64 1012.18 1012.74
1012.40 1012.28 1012.11 1011.91 1011.68 1011.43 1011.18 1010.94 1010.72 1010.51 1010.31 1010.11 1009.90 1009.66 1009.38 1009.08 1008.76 1008.45 1008.15 1007.90 1007.72 1007.60 1007.56 1007.60 1007.68 1007.80 1007.96 1008.14 1008.33 1008.56 1008.82 1009.13 1009.49 1009.92 1010.40 1010.92 1011.47 1012.03
1012.04 1011.96 1011.83 1011.65 1011.43 1011.17 1010.89 1010.59 1010.29 1009.99 1009.69 1009.39 1009.08 1008.77 1008.45 1008.13 1007.82 1007.53 1007.28 1007.08 1006.95 1006.88 1006.88 1006.94 1007.03 1007.16 1007.31 1007.47 1007.65 1007.86 1008.11 1008.41 1008.76 1009.18 1009.65 1010.16 1010.70 1011.24
1011.60 1011.57 1011.50 1011.37 1011.17 1010.91 1010.60 1010.25 1009.88 1009.49 1009.09 1008.70 1008.31 1007.94 1007.58 1007.24 1006.95 1006.69 1006.49 1006.35 1006.28 1006.26 1006.30 1006.38 1006.48 1006.61 1006.74 1006.89 1007.05 1007.23 1007.45 1007.72 1008.05 1008.43 1008.87 1009.35 1009.85 1010.38
1011.10 1011.15 1011.14 1011.07 1010.91 1010.67 1010.35 1009.97 1009.54 1009.08 1008.61 1008.15 1007.69 1007.27 1006.89 1006.56 1006.28 1006.06 1005.91 1005.82 1005.80 1005.83 1005.89 1005.99 1006.09 1006.20 1006.32 1006.43 1006.56 1006.70 1006.88 1007.10 1007.37 1007.70 1008.08 1008.50 1008.96 1009.44
1010.56 1010.69 1010.77 1010.76 1010.66 1010.45 1010.15 1009.77 1009.32 1008.82 1008.30 1007.79 1007.30 1006.86 1006.46 1006.14 1005.88 1005.70 1005.58 1005.53 1005.54 1005.60 1005.67 1005.77 1005.87 1005.96 1006.04 1006.12 1006.20 1006.30 1006.42 1006.57 1006.77 1007.02 1007.32 1007.65 1008.03 1008.44
1010.04 1010.24 1010.39 1010.46 1010.42 1010.27 1010.00 1009.64 1009.19 1008.69 1008.16 1007.64 1007.14 1006.68 1006.30 1005.98 1005.74 1005.58 1005.49 1005.46 1005.48 1005.53 1005.61 1005.69 1005.76 1005.83 1005.88 1005.92 1005.95 1005.99 1006.05 1006.13 1006.24 1006.40 1006.59 1006.82 1007.10 1007.42
1009.57 1009.84 1010.05 1010.18 1010.20 1010.10 1009.88 1009.55 1009.13 1008.65 1008.14 1007.63 1007.14 1006.70 1006.32 1006.02 1005.79 1005.63 1005.54 1005.51 1005.51 1005.55 1005.60 1005.66 1005.71 1005.74 1005.76 1005.77 1005.76 1005.75 1005.75 1005.75 1005.78 1005.83 1005.91 1006.03 1006.19 1006.40
1009.22 1009.51 1009.76 1009.93 1010.00 1009.95 1009.77 1009.49 1009.11 1008.67 1008.19 1007.71 1007.24 1006.82 1006.46 1006.16 1005.93 1005.76 1005.65 1005.58 1005.56 1005.55 1005.57 1005.59 1005.60 1005.61 1005.61 1005.59 1005.56 1005.52 1005.46 1005.40 1005.35 1005.31 1005.28 1005.28 1005.33 1005.43
1009.03 1009.32 1009.58 1009.76 1009.85 1009.82 1009.68 1009.43 1009.10 1008.70 1008.27 1007.82 1007.39 1006.99 1006.64 1006.33 1006.08 1005.88 1005.73 1005.61 1005.53 1005.47 1005.44 1005.41 1005.39 1005.38 1005.36 1005.32 1005.28 1005.22 1005.14 1005.04 1004.92 1004.80 1004.69 1004.59 1004.53 1004.53
1009.04 1009.31 1009.54 1009.71 1009.79 1009.76 1009.64 1009.42 1009.12 1008.76 1008.37 1007.96 1007.56 1007.18 1006.83 1006.51 1006.23 1005.98 1005.76 1005.58 1005.42 1005.29 1005.19 1005.11 1005.05 1005.01 1004.97 1004.94 1004.89 1004.83 1004.74 1004.62 1004.47 1004.30 1004.13 1003.96 1003.82 1003.74
1009.29 1009.50 1009.68 1009.80 1009.85 1009.81 1009.69 1009.48 1009.21 1008.88 1008.53 1008.16 1007.79 1007.42 1007.06 1006.72 1006.40 1006.09 1005.80 1005.52 1005.28 1005.06 1004.88 1004.74 1004.63 1004.55 1004.49 1004.44 1004.40 1004.34 1004.25 1004.13 1003.98 1003.79 1003.58 1003.38 1003.20 1003.07
1009.75 1009.88 1010.00 1010.07 1010.07 1010.00 1009.87 1009.67 1009.41 1009.12 1008.80 1008.46 1008.11 1007.75 1007.39 1007.02 1006.65 1006.27 1005.90 1005.53 1005.19 1004.87 1004.60 1004.37 1004.19 1004.06 1003.97 1003.90 1003.84 1003.78 1003.70 1003.58 1003.43 1003.25 1003.05 1002.84 1002.66 1002.52
1010.37 1010.44 1010.48 1010.49 1010.44 1010.34 1010.19 1009.99 1009.75 1009.48 1009.19 1008.88 1008.56 1008.21 1007.84 1007.45 1007.03 1006.59 1006.13 1005.67 1005.22 1004.80 1004.43 1004.10 1003.84 1003.63 1003.48 1003.36 1003.28 1003.19 1003.10 1002.99 1002.86 1002.69 1002.52 1002.34 1002.18 1002.07
1011.06 1011.06 1011.05 1011.00 1010.91 1010.78 1010.61 1010.41 1010.19 1009.95 1009.69 1009.41 1009.11 1008.78 1008.41 1007.99 1007.54 1007.04 1006.51 1005.96 1005.42 1004.90 1004.42 1003.99 1003.62 1003.32 1003.08 1002.90 1002.75 1002.63 1002.51 1002.39 1002.26 1002.12 1001.97 1001.84 1001.73 1001.67
1011.71 1011.66 1011.60 1011.50 1011.37 1011.22 1011.05 1010.85 1010.65 1010.44 1010.21 1009.96 1009.69 1009.37 1009.01 1008.59 1008.11 1007.57 1006.99 1006.38 1005.76 1005.15 1004.57 1004.04 1003.56 1003.16 1002.82 1002.55 1002.32 1002.13 1001.96 1001.81 1001.66 1001.53 1001.41 1001.32 1001.27 1001.28
Thickness
5652 5652 5653 5656 5658 5660 5662 5664 5665 5666 5672 5680 5687 5695 5700 5704 5709 5712 5716 5721 5724 5726 5728 5730 5731 5732 5733 5733 5733 5733 5732 5732 5731 5730 5729 5727 5726 5724
5648 5648 5649 5650 5652 5654 5656 5659 5661 5662 5665 5672 5677 5685 5691 5697 5701 5705 5709 5714 5717 5721 5723 5725 5727 5729 5730 5730 5730 5730 5730 5729 5729 5727 5726 5725 5723 5722
5643 5643 5644 5645 5646 5648 5650 5652 5654 5656 5659 5664 5669 5675 5681 5687 5692 5697 5702 5706 5710 5714 5717 5720 5722 5724 5725 5726 5727 5727 5727 5727 5726 5725 5724 5723 5721 5719
5640 5639 5639 5641 5641 5642 5643 5646 5648 5650 5653 5656 5660 5666 5672 5677 5683 5688 5693 5698 5702 5706 5710 5713 5716 5718 5720 5722 5723 5724 5724 5724 5723 5722 5721 5720 5718 5716
5638 5637 5636 5636 5636 5637 5638 5640 5643 5646 5647 5650 5653 5657 5662 5668 5672 5678 5684 5688 5693 5698 5702 5706 5709 5712 5714 5716 5718 5719 5719 5720 5720 5719 5718 5716 5715 5713
5638 5637 5636 5635 5635 5635 5636 5637 5638 5640 5642 5644 5646 5649 5653 5658 5662 5666 5671 5677 5683 5689 5693 5698 5702 5705 5708 5710 5712 5713 5714 5715 5715 5715 5714 5713 5712 5710
5638 5637 5636 5636 5636 5636 5636 5636 5636 5636 5637 5638 5640 5642 5645 5648 5652 5656 5660 5666 5672 5679 5683 5689 5693 5697 5700 5703 5706 5708 5709 5710 5710 5710 5710 5709 5708 5706
5637 5637 5637 5636 5636 5636 5637 5637 5637 5635 5635 5635 5636 5637 5640 5642 5644 5647 5650 5655 5661 5670 5672 5678 5682 5687 5692 5696 5700 5702 5703 5704 5705 5705 5705 5704 5703 5702
5637 5636 5636 5636 5634 5634 5634 5635 5634 5634 5634 5633 5633 5634 5636 5638 5639 5642 5644 5647 5653 5659 5662 5668 5673 5678 5684 5688 5692 5694 5697 5699 5700 5700 5700 5700 5699 5698
5638 5636 5634 5634 5634 5633 5632 5632 5631 5632 5632 5632 5632 5633 5635 5636 5637 5638 5640 5643 5647 5651 5654 5658 5665 5669 5675 5680 5684 5687 5689 5691 5693 5694 5695 5695 5694 5693
5639 5637 5635 5633 5634 5633 5631 5630 5630 5630 5631 5631 5631 5632 5633 5634 5635 5635 5636 5637 5640 5644 5647 5651 5657 5660 5666 5672 5677 5679 5681 5684 5686 5687 5688 5689 5689 5687
5638 5637 5636 5634 5634 5633 5630 5629 5628 5629 5629 5629 5629 5630 5631 5632 5632 5632 5632 5633 5635 5638 5643 5645 5649 5650 5655 5663 5667 5670 5673 5675 5678 5680 5681 5682 5682 5679
5637 5636 5635 5635 5633 5632 5631 5628 5628 5628 5628 5627 5627 5628 5629 5629 5630 5630 5630 5630 5631 5634 5637 5638 5641 5642 5645 5651 5656 5660 5663 5666 5669 5672 5674 5675 5675 5674
5636 5635 5634 5633 5632 5631 5630 5629 5629 5628 5626 5625 5625 5625 5626 5627 5627 5627 5628 5628 5629 5631 5633 5633 5634 5636 5637 5641 5645 5650 5654 5658 5661 5664 5666 5667 5668 5669
5637 5635 5633 5631 5629 5628 5627 5627 5626 5625 5623 5623 5622 5623 5623 5624 5624 5625 5625 5626 5627 5628 5629 5629 5629 5631 5632 5634 5638 5641 5644 5649 5652 5655 5657 5659 5661 5662
5634 5631 5629 5627 5625 5623 5623 5622 5622 5621 5620 5619 5619 5620 5620 5620 5621 5621 5621 5622 5623 5624 5625 5625 5625 5625 5627 5629 5631 5635 5637 5640 5645 5647 5649 5652 5654 5656
5629 5625 5622 5620 5618 5617 5617 5617 5617 5617 5616 5615 5615 5616 5616 5617 5617 5617 5617 5617 5617 5619 5620 5621 5621 5621 5623 5624 5626 5629 5631 5634 5636 5638 5640 5643 5647 5650
5622 5617 5614 5612 5610 5610 5610 5610 5611 5611 5611 5611 5611 5611 5611 5612 5612 5612 5612 5612 5613 5614 5614 5615 5615 5616 5618 5621 5622 5624 5626 5627 5629 5630 5632 5635 5639 5642
5612 5608 5606 5604 5603 5603 5602 5602 5602 5603 5603 5604 5605 5605 5606 5607 5607 5607 5607 5607 5608 5609 5610 5610 5609 5610 5612 5616 5621 5619 5620 5622 5622 5624 5626 5628 5632 5636
5601 5598 5595 5594 5593 5593 5593 5593 5593 5593 5593 5594 5595 5595 5596 5598 5600 5601 5602 5602 5603 5605 5606 5606 5605 5605 5607 5610 5613 5615 5615 5616 5617 5618 5620 5621 5623 5625
5587 5585 5584 5583 5582 5582 5581 5581 5581 5580 5580 5580 5581 5582 5584 5586 5588 5590 5593 5594 5596 5598 5600 5602 5602 5602 5602 5603 5607 5611 5611 5611 5612 5613 5613 5613 5615 5616
5574 5572 5571 5570 5569 5569 5568 5568 5568 5567 5567 5567 5567 5568 5569 5572 5574 5577 5580 5583 5586 5589 5593 5595 5596 5596 5596 5599 5603 5606 5607 5606 5606 5607 5607 5609 5610 5612
5561 5560 5558 5558 5557 5557 5556 5555 5555 5555 5554 5554 5554 5555 5557 5558 5560 5563 5566 5569 5573 5577 5581 5585 5588 5589 5591 5593 5596 5599 5600 5601 5600 5600 5601 5602 5603 5606